This is the latest recevied weather packets stored in our database for station/object WB0VGI-1. If no packets are shown the sender has not sent any weather packets the latest 10 day(s).
| Time | Temp. | Humidity | Pressure | Rain* | Wind** | Luminosity | Snow |
|---|---|---|---|---|---|---|---|
| 1777907225 | 13.89° C | 54% | 1000.5 hPa | 0 mm | - | - | - |
| 1777906025 | 13.89° C | 53% | 1000.4 hPa | 0 mm | - | - | - |
| 1777904825 | 13.89° C | 54% | 1000.1 hPa | 0 mm | - | - | - |
| 1777903625 | 13.33° C | 51% | 1000.1 hPa | 0 mm | - | - | - |
| 1777902425 | 13.33° C | 54% | 999.8 hPa | 0 mm | - | - | - |
| 1777901225 | 13.33° C | 59% | 999.6 hPa | 0 mm | - | - | - |
| 1777900025 | 13.89° C | 61% | 999.3 hPa | 0 mm | - | - | - |
| 1777898825 | 14.44° C | 60% | 999 hPa | 0 mm | - | - | - |
| 1777897625 | 14.44° C | 59% | 998 hPa | 0 mm | - | - | - |
| 1777896425 | 15° C | 53% | 998 hPa | 0 mm | - | - | - |
| 1777895225 | 15° C | 47% | 997.5 hPa | 0 mm | - | - | - |
| 1777894025 | 15° C | 45% | 996.9 hPa | 0 mm | - | - | - |
| 1777892825 | 15° C | 43% | 996.8 hPa | 0 mm | - | - | - |
| 1777891625 | 15° C | 41% | 996.9 hPa | 0 mm | - | - | - |
| 1777890425 | 15° C | 41% | 997.3 hPa | 0 mm | - | - | - |
| 1777889225 | 15° C | 40% | 997.1 hPa | 0 mm | - | - | - |
| 1777888025 | 15° C | 41% | 997.4 hPa | 0 mm | - | - | - |
| 1777886825 | 14.44° C | 41% | 997.8 hPa | 0 mm | - | - | - |
| 1777885625 | 14.44° C | 42% | 998.3 hPa | 0 mm | - | - | - |
| 1777884425 | 14.44° C | 44% | 998.5 hPa | 0 mm | - | - | - |
| 1777883225 | 14.44° C | 44% | 999 hPa | 0 mm | - | - | - |
| 1777882025 | 14.44° C | 44% | 999.5 hPa | 0 mm | - | - | - |
| 1777880825 | 14.44° C | 45% | 1000.1 hPa | 0 mm | - | - | - |
| 1777879625 | 14.44° C | 45% | 1000.7 hPa | 0 mm | - | - | - |
| 1777878425 | 14.44° C | 45% | 1001.1 hPa | 0 mm | - | - | - |
* Rain latest hour (hover to see other rain measurements)
** Current wind speed in m/s (hover to see current wind gust speed)